Regional Weather Roundup
Issued by NWS

Home | Current Version | Previous Version | Graphics & Text | Print | Product List | Glossary On
Versions: 1 2 3 4 5 6 7 8 9 10 11 12 13 14 15 16 17 18 19 20 21 22 23 24 25 26 27 28 29 30 31 32 33 34 35 36 37 38 39 40 41 42 43 44 45 46 47 48 49 50
000
ASUS45 KCYS 231510
RWRWY

WYOMING REGIONAL WEATHER ROUNDUP
NATIONAL WEATHER SERVICE CHEYENNE WY
800 AM MST THU FEB 23 2017

NOTE:  "FAIR" INDICATES FEW OR NO CLOUDS BELOW 12,000 FEET
WITH NO SIGNIFICANT WEATHER AND/OR OBSTRUCTIONS TO VISIBILITY.

WYZ001-231600-
YELLOWSTONE NATIONAL PARK

CITY           SKY/WX    TMP DP  RH WIND       PRES   REMARKS
LK YELLOWSTONE   N/A     15   7  70 VRB6      29.64S WCI   6
W YELLOWSTONE  NOT AVBL

$$
WYZ002>013-054>058-071-098>099-231600-
NORTHERN WYOMING

CITY           SKY/WX    TMP DP  RH WIND       PRES   REMARKS
JACKSON        MOCLDY    19  16  86 N17       29.59R WCI   4
CODY           FLURRIES  24  21  88 N16       29.77R WCI  11
GREYBULL       FAIR      30  22  72 NW20      29.69S WCI  17
WORLAND        CLOUDY    29  24  82 N9        29.70R WCI  20
SHERIDAN       CLOUDY    28  25  88 NE9       29.84R WCI  19
BUFFALO        CLOUDY    26  22  84 N13G22    29.79R WCI  15
GILLETTE       CLOUDY    26  24  92 NE21      29.79R WCI  12
HULETT         CLOUDY    28  27  93 MISG      29.81S FOG
NEWCASTLE      PTSUNNY   28  28 100 CALM      29.75R

$$
WYZ014>020-022>026-101>103-231600-
CENTRAL WYOMING

CITY           SKY/WX    TMP DP  RH WIND       PRES   REMARKS
BIG PINEY      LGT SNOW  21  18  88 NW9       29.53R WCI  11
PINEDALE       CLOUDY    19  14  79 NW14      29.53R WCI   6
DUBOIS         LGT SNOW  21  19  93 SE7       29.57S WCI  13
LANDER         FOG       24  23  96 N16       29.63R VSB 1/4 WCI  11
RIVERTON       HVY SNOW  24  23  96 N18       29.63R VSB 1/4 WCI  10
CASPER         SNOW      23  21  92 E28       29.65R VSB 1/4 WCI   6
DOUGLAS        HVY SNOW  24  23  96 E6        29.70R VSB 1/4 WCI  17

$$
WYZ021-027>030-104>119-231600-
SOUTHERN WYOMING

CITY           SKY/WX    TMP DP  RH WIND       PRES   REMARKS
EVANSTON       CLOUDY    16  12  84 SW10      29.59R WCI   4
FORT BRIDGER   LGT SNOW  20  20 100 W16       29.60R VSB 1   WCI   6
ROCK SPRINGS   SNOW      21  18  86 N9        29.51R VSB 1/2 WCI  11
DIXON            N/A     25  21  84 SW17      29.50R WCI  12
RAWLINS        SNOW      22  18  85 NE26      29.43S VSB 1/2 WCI   5
SARATOGA       CLOUDY    28  27  93 E9        29.40F WCI  20
LARAMIE        MIX PCPN  25  19  78 E22G31    29.47R WCI  10
CHEYENNE       LGT SNOW  26  25  96 E16       29.56F FOG     WCI  14
TORRINGTON     SNOW      26  24  92 E17       29.69S VSB 1/4 WCI  13
PINE BLUFFS    DRIZZLE   28  28 100 NE10G17   29.61S WCI  19

$$



USA.gov is the U.S. government's official web portal to all federal, state and local government web resources and services.